Location: Altleiningen
(49.5078°N, 8.0741°E)
Time: 05:06:15
(UTC+00:00)

Cosmos 1271 Rocket - Pass Details

Date: 14 June 2025
Orbit: 443 x 475 km, 81.2° (Epoch: 12 July)

Event Time Altitude Azimuth Distance (km) Brightness Sun altitude
Exits shadow 22:16:29 19° 111° (ESE) 1,201 4.2 -15.5°
Maximum altitude 22:17:23 21° 90° (E) 1,136 4.2 -15.5°
Drops below altitude 10° 22:20:09 10° 41° (NE) 1,658 5.7 -15.6°
Sets 22:22:36 0° 25° (NNE) 2,541 7.0 -15.7°
